Regional Weather Roundup
Issued by NWS Cleveland, OH

Home | Current Version | Previous Version | Graphics & Text | Print | Product List | Glossary On
Versions: 1 2 3 4 5 6 7 8 9 10 11 12 13 14 15 16 17 18 19 20 21 22 23 24 25 26 27 28 29 30 31 32 33 34 35 36 37 38 39 40 41 42 43 44 45 46 47 48 49 50
000
ASUS41 KCLE 281002
RWRCLE
OHIO REGIONAL WEATHER ROUNDUP
NATIONAL WEATHER SERVICE CLEVELAND, OH
500 AM EST WED JAN 28 2015

NOTE: "FAIR" INDICATES FEW OR NO CLOUDS BELOW 12,000 FEET WITH NO
SIGNIFICANT WEATHER AND/OR OBSTRUCTIONS TO VISIBILITY.

OHZ001>008-015>018-024>027-034-035-043-044-281100-
   NORTHWEST OHIO

CITY           SKY/WX    TMP DP  RH WIND       PRES   REMARKS
DEFIANCE       PTCLDY     4   0  83 W3        30.32R
FINDLAY        PTCLDY     1  -3  83 W5        30.28R WCI  -9
TOLEDO EXPRESS PTCLDY     6   4  91 W5        30.30R WCI  -3
TOLEDO EXEC    PTCLDY    10   4  76 W3        30.31R
LIMA           PTCLDY     0  -6  76 CALM      30.28R HAZE
$$

OHZ009>014-019>023-028>033-038-089-281100-
   NORTHEAST OHIO

CITY           SKY/WX    TMP DP  RH WIND       PRES   REMARKS
CLE-HOPKINS    PTCLDY     8   5  87 CALM      30.29R
CLE-LAKEFRONT  CLEAR     10   7  87 SW5       30.27R WCI   2
CUY CO. ARPT   NOT AVBL
LORAIN-ELYRIA  PTCLDY     1  -1  91 W3        30.27R
ASHTABULA      PTCLDY    -7 -11  83 W3        30.23R
AKRON-CANTON   PTCLDY     7   3  84 NW7       30.22R FOG     WCI  -5
WOOSTER        MOCLDY    -5  -9  83 CALM      30.24R FOG
MANSFIELD      PTCLDY     7   2  80 CALM      30.23R
YOUNGSTOWN     PTCLDY     0  -4  83 W5        30.20R WCI -10
$$

OHZ042-051>053-060>062-070>072-077>081-281100-
  SOUTHWEST OHIO

CITY           SKY/WX    TMP DP  RH WIND       PRES   REMARKS
CINC-COVINGTON CLEAR     14  10  84 CALM      30.30R FOG
CINC-LUNKEN    CLEAR     13  10  88 CALM      30.34R FOG
HAMILTON       PTCLDY    10   7  87 CALM      30.34R FOG
DAYTON         CLEAR     10   5  80 NW3       30.30R HAZE
WRIGHT-PAT AFB CLEAR      5   1  85 CALM      30.31R FOG
DAYTON GENERAL CLEAR     13  10  88 CALM      30.29R FOG
WILMINGTON     CLEAR      9   6  88 CALM      30.28R FOG
$$

OHZ036-037-039>041-045>050-054>059-063>069-073>076-082>088-281100-
  CENTRAL AND SOUTHEAST OHIO

CITY           SKY/WX    TMP DP  RH WIND       PRES   REMARKS
COLUMBUS       CLEAR      8   3  80 CALM      30.29R HAZE
OSU AIRPORT    CLEAR      7   3  84 W3        30.29R FOG
BOLTON FIELD   NOT AVBL
RICKENBACK AFB NOT AVBL
NEWARK         PTCLDY     1  -3  83 CALM      30.28R
MARION         PTCLDY     0  -4  83 CALM      30.28R FOG
LANCASTER      PTCLDY     2  -3  80 CALM      30.28R
ZANESVILLE     PTCLDY    12   8  84 SW3       30.27R
NEW PHILLY     CLOUDY    13   8  81 NW7       30.27R WCI   3
$$


USA.gov is the U.S. government's official web portal to all federal, state and local government web resources and services.